Location: Songkhla
(7.2000°N, 100.6000°E)
Time: 13:43:58
(UTC+07:00)

ISS - Visible Passes

Search period start: 20 April 2018 00:00
Search period end: 30 April 2018 00:00
Orbit: 403 x 406 km, 51.6° (Epoch: 20 April)

Date Brightness Start Highest point End Pass type
(mag) Time Alt. Az. Time Alt. Az. Time Alt. Az.
24 Apr -2.0 05:16:52 10° S 05:19:44 28° SE 05:22:35 10° ENE visible
25 Apr -0.8 04:26:35 10° SE 04:27:31 11° SE 04:28:33 10° ESE visible
26 Apr -3.8 05:09:56 27° SW 05:11:30 61° NW 05:14:43 10° NNE visible
27 Apr -1.8 04:20:28 28° ENE 04:20:28 28° ENE 04:22:21 10° NE visible
28 Apr -1.8 05:03:34 16° NW 05:03:34 16° NW 05:05:22 10° NNW visible
29 Apr -0.8 04:13:51 11° NNE 04:13:51 11° NNE 04:14:04 10° NNE visible
